Printer-friendly version

IAU Minor Planet Center

Minor Planet Center

MPEC 1999-F27: 1999 FN19

The following Minor Planet Electronic Circular may be linked-to from your own Web pages, but must not otherwise be redistributed electronically.


Read MPEC 1999-F26 Read MPEC 1999-F28


M.P.E.C. 1999-F27                                Issued 1999 Mar. 25, 20:55 UT

     The Minor Planet Electronic Circulars contain information on unusual
         minor planets and routine data on comets.  They are published
   on behalf of Commission 20 of the International Astronomical Union by the
          Minor Planet Center, Smithsonian Astrophysical Observatory,
                          Cambridge, MA 02138, U.S.A.

             BMARSDEN@CFA.HARVARD.EDU or GWILLIAMS@CFA.HARVARD.EDU
          URL http://cfa-www.harvard.edu/iau/mpc.html  ISSN 1523-6714

                                   1999 FN19

Observations:
     J99F19N* C1999 03 20.20547 11 10 49.84 -00 25 37.9          18.9        704
     J99F19N  C1999 03 20.22349 11 10 50.42 -00 25 33.5                      704
     J99F19N  C1999 03 20.25954 11 10 51.64 -00 25 17.9                      704
     J99F19N  C1999 03 20.27768 11 10 52.14 -00 25 11.2                      704
     J99F19N  C1999 03 23.25318 11 14 15.48 -00 05 11.9          19.1        704
     J99F19N  C1999 03 23.26780 11 14 16.38 -00 05 07.7          19.0        704
     J99F19N  C1999 03 23.28250 11 14 16.96 -00 04 59.8          19.0        704
     J99F19N  C1999 03 23.29719 11 14 17.88 -00 04 54.7          19.1        704
     J99F19N  C1999 03 23.31186 11 14 18.47 -00 04 46.1          19.0        704
     J99F19N  C1999 03 24.01623 11 15 17.42 +00 00 23.6                      557
     J99F19N WC1999 03 24.02439 11 15 18.02 +00 00 26.7                      557
     J99F19N  C1999 03 24.26788 11 15 41.69 +00 02 44.6          19.0        704
     J99F19N  C1999 03 24.26841 11 15 41.65 +00 02 43.3          18.9        704
     J99F19N  C1999 03 24.26847 11 15 41.91 +00 02 41.3          18.7        704
     J99F19N  C1999 03 24.27822 11 15 42.49 +00 02 49.6          18.7        704
     J99F19N  C1999 03 24.27828 11 15 42.29 +00 02 49.7          18.6        704
     J99F19N  C1999 03 24.27881 11 15 42.55 +00 02 47.7          18.9        704
     J99F19N  C1999 03 24.27886 11 15 42.23 +00 02 49.6          18.7        704
     J99F19N  C1999 03 24.28862 11 15 42.86 +00 02 52.3          19.1        704
     J99F19N  C1999 03 24.28868 11 15 43.05 +00 02 51.8          18.6        704
     J99F19N  C1999 03 24.28921 11 15 43.16 +00 02 52.0          18.9        704
     J99F19N  C1999 03 24.28926 11 15 43.10 +00 02 52.3          18.8        704
     J99F19N  C1999 03 24.29898 11 15 43.60 +00 02 57.0          19.5        704
     J99F19N  C1999 03 24.29904 11 15 43.51 +00 02 56.2          19.5        704
     J99F19N  C1999 03 24.29959 11 15 43.74 +00 02 56.6          18.9        704
     J99F19N  C1999 03 24.29965 11 15 43.45 +00 02 58.6          18.9        704
     J99F19N  C1999 03 24.30944 11 15 44.01 +00 03 01.7          19.3        704
     J99F19N IC1999 03 24.50311 11 16 04.87 +00 06 16.8          18.4 R      422
     J99F19N  C1999 03 24.50473 11 16 05.00 +00 06 17.6          18.6 R      422
     J99F19N  C1999 03 24.50545 11 16 05.05 +00 06 17.4          18.5 R      422
     J99F19N  C1999 03 24.81406 11 16 35.61 +00 06 56.7          16.7 R      046
     J99F19N  C1999 03 24.81544 11 16 35.77 +00 06 57.8                      046
     J99F19N  C1999 03 24.81697 11 16 35.86 +00 06 58.4                      046
     J99F19N  C1999 03 24.81803 11 16 35.98 +00 06 58.8                      046
     J99F19N  C1999 03 24.83024 11 16 36.72 +00 07 03.5                      557
     J99F19N  C1999 03 24.83176 11 16 36.85 +00 07 04.2                      557
     J99F19N  C1999 03 24.83328 11 16 36.99 +00 07 05.1                      557
     J99F19N  C1999 03 24.83479 11 16 37.08 +00 07 06.7          18.4 V      557
     J99F19N  C1999 03 24.85590 11 16 39.15 +00 07 22.7                      104
     J99F19N  C1999 03 24.85868 11 16 39.35 +00 07 24.3                      104
     J99F19N  C1999 03 24.86146 11 16 39.55 +00 07 25.9                      104
     J99F19N  C1999 03 24.86872 11 16 40.04 +00 07 29.6                      104
     J99F19N  C1999 03 24.87212 11 16 39.74 +00 07 26.3          17.6 R      118
     J99F19N  C1999 03 24.87222 11 16 40.33 +00 07 31.2          18.0 V      104
     J99F19N  C1999 03 24.87520 11 16 40.00 +00 07 27.8                      118
     J99F19N  C1999 03 24.88082 11 16 40.37 +00 07 30.4                      118
     J99F19N  C1999 03 24.89073 11 16 41.04 +00 07 35.7                      118
     J99F19N pC1999 03 24.92796 11 16 44.35 +00 07 57.8                      587
     J99F19N  C1999 03 24.93877 11 16 45.12 +00 08 03.3                      587
     J99F19N  C1999 03 25.62772 11 17 52.50 +00 16 04.7          18.5 R      422
     J99F19N  C1999 03 25.62847 11 17 52.56 +00 16 05.2          18.6 R      422
     J99F19N  C1999 03 25.62916 11 17 52.60 +00 16 05.6                      422
     J99F19N  C1999 03 25.80306 11 18 16.89 +00 15 37.3                      557
     J99F19N  C1999 03 25.80502 11 18 17.08 +00 15 38.4                      557

Observer details:
046 Klet.  Observers M. Tichy, Z. Moravec.  Measurer M. Tichy.  0.57-m f/5.2
    reflector + CCD.
104 San Marcello Pistoiese.  Observers L. Tesi, A. Boattini, M. Tombelli.
    Measurers G. Forti, L. Tesi, A. Boattini, M. Tombelli.  0.40-m f/5
    reflector + CCD.
118 Modra.  Observers L. Kornos, J. Toth.  0.6-m f/5.5 reflector + CCD.
422 Loomberah.  Observer G. J. Garradd.  0.45-m f/5.4 reflector + CCD.
557 Ondrejov.  Observers P. Pravec, L. Sarounova.  0.65-m f/3.6 reflector
    + CCD.
587 Sormano.  Observers A. Testa, P. Sicoli.  0.5-m reflector + CCD.
704 Lincoln Laboratory ETS, New Mexico.  Observers M. Blythe, F. Shelly,
    M. Bezpalko.  Measurers J. Stuart, H. Viggh, R. Sayer.  1.0-m f/2.15
    reflector + CCD.

Orbital elements:
1999 FN19
Epoch 1999 Mar. 23.0 TT = JDT 2451260.5                 Williams
M 340.50161              (2000.0)            P               Q
n   0.46391920     Peri.   35.11013     -0.68731200     +0.72631708
a   1.6526256      Node   191.47965     -0.67539613     -0.64315270
e   0.3933760      Incl.    2.33434     -0.26728689     -0.24252445
P   2.12           H   22.5           G   0.15
From 54 observations 1999 Mar. 20-25.

Ephemeris:
1999 FN19                a,e,i = 1.65, 0.39, 2                   q = 1.0025
Date    TT    R. A. (2000) Decl.     Delta      r     Elong.  Phase     V
1999 03 23    11 13.92   -00 06.3    0.102    1.096   166.7    12.1    18.5
1999 03 28    11 22.75   +00 38.9    0.082    1.077   164.0    14.8    18.0
1999 04 02    11 38.81   +01 47.7    0.062    1.059   162.6    16.4    17.5
1999 04 07    12 10.22   +03 43.5    0.044    1.043   163.5    15.8    16.7
1999 04 12    13 20.93   +07 22.7    0.029    1.030   164.2    15.4    15.7
1999 04 17    16 05.02   +12 12.9    0.021    1.019   137.3    42.0    15.8
1999 04 22    18 59.64   +10 38.3    0.027    1.011   101.6    76.9    17.4
1999 04 27    20 18.84   +07 43.4    0.042    1.005    87.5    90.1    18.8
1999 05 02    20 55.31   +06 02.4    0.058    1.003    83.5    93.2    19.6
1999 05 07    21 15.83   +05 03.9    0.075    1.003    83.4    92.4    20.1
1999 05 12    21 29.14   +04 27.3    0.091    1.006    85.0    89.9    20.5
1999 05 17    21 38.47   +04 02.2    0.107    1.012    87.5    86.4    20.7
1999 05 22    21 45.28   +03 42.7    0.123    1.021    90.6    82.5    20.9
1999 05 27    21 50.29   +03 25.4    0.138    1.032    94.2    78.2    21.0
1999 06 01    21 53.84   +03 08.1    0.152    1.046    98.1    73.7    21.1

1999 06 11    21 56.83   +02 25.1    0.177    1.080   106.9    64.0    21.2
1999 06 21    21 54.16   +01 18.2    0.200    1.122   117.3    53.6    21.2
1999 07 01    21 46.16   -00 21.7    0.222    1.169   129.0    42.5    21.2
1999 07 11    21 33.65   -02 34.8    0.247    1.221   142.0    30.9    21.2
1999 07 21    21 18.54   -05 11.3    0.279    1.275   155.4    19.3    21.2
1999 07 31    21 03.74   -07 50.7    0.322    1.332   167.9     9.2    21.3
1999 08 10    20 51.67   -10 13.7    0.378    1.389   171.6     6.1    21.6

Gareth V. Williams           (C) Copyright 1999 MPC           M.P.E.C. 1999-F27

Read MPEC 1999-F26 Read MPEC 1999-F28


Our Web policy. Index to the CBAT/MPC/ICQ pages.


Valid HTML 4.01!